contact:dominique.lefevre@mio.osupytheas.fr, maurice.libes@osupytheas.fr, didier.mallarino@osupytheas.fr
Project:EMSO http://www.emso-fr.org/EMSO-France
Depth: 2436.0 m
Title:EMSO Ligure Ouest : Data MII capteur AQUADOPP
Date,Latitude,Longitude,X_East,Y_North,Z_Up,Amplitude_X,Amplitude_Y,Amplitude_Z,Batterie,SoundSpeed,Heading,Pitch,Roll,Pressure,TIS,Speed,Direction
, degrees North, degrees East, m.s-1, m.s-1,m.s-1, 1, 1, 1, Volt, m.s-1, degree, degree, degree, dbar, degree_C, m.s-1, degree
2023-03-25T00:04:03,42.805,6.029,0.046,-0.003,0.017,103.0,108.0,102.0,13.4,1505.2,329.5,-0.8,1.8,2471.364,13.28,0.046,93.7
2023-03-25T00:07:03,42.805,6.029,0.054,0.002,0.011,103.0,107.0,102.0,13.4,1505.2,324.7,-0.8,1.8,2471.353,13.28,0.054,87.9
2023-03-25T00:10:03,42.805,6.029,0.044,0.008,0.034,103.0,107.0,102.0,13.4,1505.2,343.4,-0.8,1.8,2471.353,13.28,0.044,79.7
2023-03-25T00:13:03,42.805,6.029,0.049,0.022,0.024,103.0,108.0,101.0,13.3,1505.2,320.9,-0.8,1.8,2471.314,13.28,0.053,65.8
2023-03-25T00:16:03,42.805,6.029,0.058,0.002,0.036,103.0,109.0,102.0,13.4,1505.2,331.6,-0.8,1.8,2471.321,13.28,0.058,88.0
2023-03-25T00:19:03,42.805,6.029,0.055,0.003,0.02,102.0,108.0,102.0,13.4,1505.2,341.8,-0.8,1.8,2471.302,13.28,0.055,86.9
2023-03-25T00:22:03,42.805,6.029,0.04,0.019,0.015,103.0,108.0,102.0,13.3,1505.2,321.7,-0.8,1.8,2471.317,13.28,0.044,64.6
2023-03-25T00:25:03,42.805,6.029,0.046,0.024,-0.004,104.0,106.0,102.0,13.3,1505.2,322.3,-0.8,1.8,2471.304,13.28,0.051,62.4
2023-03-25T00:28:03,42.805,6.029,0.052,0.012,0.05,104.0,108.0,100.0,13.4,1505.2,336.6,-0.8,1.9,2471.296,13.29,0.053,77.0
2023-03-25T00:31:03,42.805,6.029,0.05,-0.001,-0.008,102.0,108.0,102.0,13.4,1505.2,334.3,-0.7,1.8,2471.298,13.29,0.05,91.1
2023-03-25T00:34:03,42.805,6.029,0.012,0.001,-0.01,103.0,107.0,102.0,13.4,1505.2,331.9,-0.7,1.8,2471.276,13.29,0.012,85.2
2023-03-25T00:37:03,42.805,6.029,0.059,0.012,0.05,103.0,105.0,102.0,13.4,1505.2,332.6,-0.8,1.8,2471.301,13.29,0.06,78.5
2023-03-25T00:40:03,42.805,6.029,0.044,0.0,0.016,104.0,106.0,102.0,13.3,1505.2,333.0,-0.8,1.9,2471.246,13.29,0.044,90.0
2023-03-25T00:43:03,42.805,6.029,0.09,0.02,0.056,103.0,108.0,102.0,13.4,1505.2,325.5,-0.8,1.8,2471.283,13.29,0.092,77.5
2023-03-25T00:46:03,42.805,6.029,0.078,-0.007,0.032,104.0,106.0,103.0,13.4,1505.2,329.9,-0.8,1.8,2471.271,13.29,0.078,95.1
2023-03-25T00:49:03,42.805,6.029,0.049,0.019,0.033,102.0,109.0,102.0,13.4,1505.2,332.4,-0.7,1.8,2471.293,13.29,0.052,68.8
2023-03-25T00:52:03,42.805,6.029,0.055,-0.009,0.016,105.0,105.0,103.0,13.4,1505.2,341.9,-0.8,1.8,2471.247,13.29,0.055,99.3
2023-03-25T00:55:03,42.805,6.029,0.065,0.0,0.0,103.0,109.0,103.0,13.3,1505.2,325.4,-0.8,1.8,2471.241,13.29,0.064,90.0
2023-03-25T00:58:03,42.805,6.029,0.053,-0.013,0.026,103.0,109.0,102.0,13.4,1505.2,331.6,-0.8,1.8,2471.249,13.29,0.054,103.8
2023-03-25T01:04:03,42.805,6.029,0.049,-0.01,0.037,105.0,109.0,103.0,13.4,1505.2,340.2,-0.7,1.8,2471.359,13.28,0.05,101.5
2023-03-25T01:07:03,42.805,6.029,0.042,-0.01,0.0,103.0,109.0,102.0,13.4,1505.2,328.7,-0.8,1.8,2471.322,13.28,0.043,103.4
2023-03-25T01:10:03,42.805,6.029,0.037,0.001,0.043,101.0,107.0,103.0,13.3,1505.2,334.8,-0.8,1.8,2471.274,13.28,0.037,88.5
2023-03-25T01:13:03,42.805,6.029,0.116,-0.026,0.051,104.0,108.0,102.0,13.4,1505.2,336.9,-0.8,1.8,2471.286,13.28,0.118,102.6
2023-03-25T01:16:03,42.805,6.029,0.069,-0.012,0.029,103.0,108.0,102.0,13.4,1505.2,335.3,-0.8,1.8,2471.311,13.28,0.07,99.9
2023-03-25T01:19:03,42.805,6.029,0.037,0.034,0.041,102.0,110.0,103.0,13.3,1505.2,323.1,-0.8,1.8,2471.287,13.28,0.05,47.4
2023-03-25T01:22:03,42.805,6.029,0.005,0.004,-0.017,102.0,109.0,103.0,13.4,1505.2,322.7,-0.7,1.8,2471.285,13.28,0.006,51.3
2023-03-25T01:25:03,42.805,6.029,0.064,-0.009,0.014,102.0,108.0,102.0,13.4,1505.2,341.2,-0.8,1.8,2471.247,13.28,0.064,98.0
2023-03-25T01:28:03,42.805,6.029,0.053,0.033,0.043,103.0,108.0,102.0,13.4,1505.2,318.5,-0.8,1.8,2471.27,13.29,0.062,58.1
2023-03-25T01:31:03,42.805,6.029,0.083,-0.001,0.019,102.0,108.0,103.0,13.4,1505.2,325.1,-0.8,1.8,2471.235,13.28,0.083,90.7
2023-03-25T01:34:03,42.805,6.029,0.033,0.015,-0.015,102.0,107.0,102.0,13.4,1505.2,323.7,-0.8,1.8,2471.234,13.28,0.036,65.6
2023-03-25T01:37:03,42.805,6.029,0.048,-0.003,0.001,102.0,108.0,102.0,13.4,1505.2,325.1,-0.7,1.8,2471.275,13.28,0.048,93.6
2023-03-25T01:40:03,42.805,6.029,0.037,0.001,0.026,102.0,108.0,102.0,13.3,1505.2,332.5,-0.8,1.8,2471.219,13.28,0.037,88.5
2023-03-25T01:43:03,42.805,6.029,0.058,0.012,0.015,102.0,109.0,102.0,13.4,1505.2,328.2,-0.8,1.8,2471.265,13.29,0.059,78.3
2023-03-25T01:46:03,42.805,6.029,0.063,0.004,0.027,103.0,108.0,102.0,13.4,1505.2,327.6,-0.8,1.8,2471.25,13.28,0.063,86.4
2023-03-25T01:49:03,42.805,6.029,0.059,0.004,0.052,103.0,108.0,103.0,13.3,1505.2,323.6,-0.7,1.8,2471.25,13.28,0.059,86.1
2023-03-25T01:52:03,42.805,6.029,0.049,0.003,0.02,103.0,107.0,104.0,13.4,1505.2,333.9,-0.8,1.8,2471.231,13.29,0.049,86.5
2023-03-25T01:55:03,42.805,6.029,0.036,0.011,-0.006,103.0,109.0,101.0,13.3,1505.2,321.2,-0.8,1.8,2471.234,13.29,0.037,73.0
2023-03-25T01:58:03,42.805,6.029,-0.009,-0.009,-0.068,104.0,109.0,101.0,13.3,1505.2,329.3,-0.8,1.8,2471.255,13.29,0.012,225.0
2023-03-25T02:04:03,42.805,6.029,0.07,0.016,0.021,104.0,108.0,103.0,13.4,1505.2,320.8,-0.7,1.8,2471.298,13.28,0.071,77.1
2023-03-25T02:07:03,42.805,6.029,0.046,0.025,0.042,104.0,109.0,101.0,13.4,1505.2,326.5,-0.7,1.8,2471.278,13.28,0.052,61.5
2023-03-25T02:10:03,42.805,6.029,0.075,0.006,-0.009,103.0,109.0,102.0,13.3,1505.2,325.7,-0.8,1.8,2471.279,13.28,0.075,85.4
2023-03-25T02:13:03,42.805,6.029,0.024,-0.009,-0.007,103.0,108.0,102.0,13.4,1505.2,338.8,-0.8,1.8,2471.263,13.28,0.025,110.6
2023-03-25T02:16:03,42.805,6.029,0.041,0.0,0.025,103.0,108.0,102.0,13.3,1505.2,327.9,-0.8,1.8,2471.252,13.28,0.041,90.0
2023-03-25T02:19:03,42.805,6.029,0.042,0.009,0.01,103.0,108.0,102.0,13.3,1505.2,327.7,-0.8,1.8,2471.242,13.28,0.042,77.9
2023-03-25T02:22:03,42.805,6.029,0.069,0.0,0.012,103.0,108.0,102.0,13.4,1505.2,333.8,-0.8,1.8,2471.248,13.28,0.068,90.0
2023-03-25T02:25:03,42.805,6.029,-0.001,0.005,-0.001,103.0,110.0,101.0,13.3,1505.2,323.3,-0.8,1.8,2471.226,13.28,0.005,348.7
2023-03-25T02:28:03,42.805,6.029,0.062,0.008,0.0,105.0,106.0,102.0,13.4,1505.2,324.8,-0.7,1.8,2471.2,13.28,0.062,82.7
2023-03-25T02:31:03,42.805,6.029,0.027,0.016,0.001,105.0,108.0,102.0,13.4,1505.2,326.3,-0.8,1.8,2471.219,13.29,0.031,59.3
2023-03-25T02:34:03,42.805,6.029,0.043,0.011,0.006,103.0,110.0,102.0,13.4,1505.2,334.2,-0.8,1.8,2471.195,13.28,0.044,75.7
2023-03-25T02:37:03,42.805,6.029,0.065,-0.001,0.0,103.0,109.0,103.0,13.3,1505.2,328.6,-0.8,1.8,2471.193,13.29,0.065,90.9
2023-03-25T02:40:03,42.805,6.029,0.053,-0.011,-0.007,103.0,108.0,102.0,13.4,1505.2,333.4,-0.8,1.8,2471.214,13.29,0.054,101.7
2023-03-25T02:43:03,42.805,6.029,0.038,-0.012,0.006,104.0,107.0,102.0,13.3,1505.2,342.5,-0.8,1.8,2471.22,13.29,0.039,107.5
2023-03-25T02:46:03,42.805,6.029,0.074,0.015,0.012,104.0,108.0,102.0,13.4,1505.2,316.7,-0.8,1.8,2471.212,13.29,0.075,78.5
2023-03-25T02:49:03,42.805,6.029,0.075,0.01,0.037,104.0,108.0,103.0,13.4,1505.2,321.2,-0.7,1.8,2471.191,13.29,0.075,82.4
2023-03-25T02:52:03,42.805,6.029,0.052,0.004,0.0,104.0,109.0,102.0,13.4,1505.2,331.0,-0.8,1.8,2471.206,13.28,0.052,85.6
2023-03-25T02:55:03,42.805,6.029,0.016,0.024,0.017,105.0,108.0,102.0,13.4,1505.2,324.3,-0.8,1.8,2471.187,13.29,0.028,33.7
2023-03-25T02:58:03,42.805,6.029,0.041,0.002,0.008,103.0,109.0,103.0,13.4,1505.2,322.5,-0.8,1.8,2471.217,13.29,0.041,87.2
2023-03-25T03:04:03,42.805,6.029,0.06,0.028,0.032,104.0,108.0,101.0,13.4,1505.2,331.0,-0.8,1.8,2471.184,13.28,0.066,65.0
2023-03-25T03:07:03,42.805,6.029,0.038,0.02,-0.04,104.0,108.0,102.0,13.3,1505.2,327.3,-0.8,1.8,2471.24,13.28,0.042,62.2
2023-03-25T03:10:03,42.805,6.029,0.041,0.023,-0.012,104.0,108.0,101.0,13.4,1505.2,324.4,-0.8,1.8,2471.243,13.28,0.047,60.7
2023-03-25T03:13:03,42.805,6.029,0.078,0.011,-0.012,104.0,109.0,101.0,13.4,1505.2,329.0,-0.8,1.8,2471.225,13.28,0.078,82.0
2023-03-25T03:16:03,42.805,6.029,0.058,0.025,-0.003,103.0,108.0,102.0,13.3,1505.2,340.2,-0.8,1.8,2471.186,13.28,0.063,66.7
2023-03-25T03:19:03,42.805,6.029,0.07,0.029,-0.003,104.0,107.0,102.0,13.4,1505.2,317.3,-0.8,1.8,2471.244,13.28,0.075,67.5
2023-03-25T03:22:03,42.805,6.029,0.088,0.015,0.051,104.0,107.0,103.0,13.3,1505.2,328.8,-0.7,1.8,2471.19,13.28,0.089,80.3
2023-03-25T03:25:03,42.805,6.029,0.09,0.009,0.017,104.0,108.0,102.0,13.4,1505.2,331.9,-0.8,1.8,2471.214,13.28,0.09,84.3
2023-03-25T03:28:03,42.805,6.029,0.083,0.013,0.024,106.0,108.0,102.0,13.3,1505.2,326.8,-0.7,1.8,2471.175,13.28,0.084,81.1
2023-03-25T03:31:03,42.805,6.029,0.041,-0.008,-0.021,104.0,108.0,101.0,13.4,1505.2,334.6,-0.7,1.8,2471.184,13.29,0.041,101.0
2023-03-25T03:34:03,42.805,6.029,0.056,0.011,0.005,105.0,106.0,102.0,13.3,1505.2,334.9,-0.7,1.8,2471.173,13.29,0.057,78.9
2023-03-25T03:37:03,42.805,6.029,0.066,0.01,0.012,103.0,108.0,102.0,13.4,1505.2,328.3,-0.8,1.8,2471.206,13.28,0.066,81.4
2023-03-25T03:40:03,42.805,6.029,0.061,0.025,-0.009,104.0,108.0,103.0,13.4,1505.2,329.0,-0.7,1.8,2471.166,13.29,0.065,67.7
2023-03-25T03:43:03,42.805,6.029,0.047,0.033,0.0,105.0,107.0,102.0,13.4,1505.2,316.7,-0.8,1.8,2471.167,13.29,0.057,54.9
2023-03-25T03:46:03,42.805,6.029,0.09,0.012,0.014,103.0,110.0,102.0,13.4,1505.2,325.5,-0.8,1.8,2471.192,13.29,0.09,82.4
2023-03-25T03:49:03,42.805,6.029,0.056,0.017,0.002,104.0,108.0,102.0,13.4,1505.2,328.8,-0.8,1.8,2471.186,13.29,0.058,73.1
2023-03-25T03:52:03,42.805,6.029,0.046,0.018,0.013,105.0,106.0,102.0,13.4,1505.2,320.8,-0.8,1.8,2471.21,13.29,0.049,68.6
2023-03-25T03:55:03,42.805,6.029,0.058,0.018,0.006,104.0,108.0,101.0,13.4,1505.2,334.3,-0.8,1.8,2471.21,13.29,0.06,72.8
2023-03-25T03:58:03,42.805,6.029,0.068,0.003,-0.009,103.0,108.0,102.0,13.3,1505.2,331.5,-0.8,1.8,2471.183,13.29,0.068,87.5
2023-03-25T04:04:03,42.805,6.029,0.036,0.007,-0.021,104.0,107.0,101.0,13.4,1505.2,334.3,-0.8,1.8,2471.244,13.28,0.036,79.0
2023-03-25T04:07:03,42.805,6.029,0.071,0.021,0.022,103.0,108.0,102.0,13.4,1505.2,325.5,-0.8,1.8,2471.258,13.28,0.074,73.5
2023-03-25T04:10:03,42.805,6.029,0.077,-0.014,0.011,104.0,109.0,102.0,13.4,1505.2,332.1,-0.8,1.8,2471.228,13.28,0.078,100.3
2023-03-25T04:13:03,42.805,6.029,0.023,0.021,-0.033,104.0,107.0,102.0,13.4,1505.2,324.5,-0.8,1.8,2471.23,13.28,0.031,47.6
2023-03-25T04:16:03,42.805,6.029,0.064,0.004,0.035,103.0,108.0,102.0,13.3,1505.2,338.8,-0.8,1.8,2471.187,13.28,0.064,86.4
2023-03-25T04:19:03,42.805,6.029,0.059,0.007,-0.01,103.0,109.0,102.0,13.4,1505.2,337.3,-0.8,1.8,2471.194,13.28,0.059,83.2
2023-03-25T04:22:03,42.805,6.029,0.069,-0.021,0.003,104.0,108.0,102.0,13.4,1505.2,341.2,-0.8,1.8,2471.182,13.28,0.072,106.9
2023-03-25T04:25:03,42.805,6.029,0.067,0.015,0.003,104.0,107.0,102.0,13.3,1505.2,327.1,-0.7,1.8,2471.208,13.29,0.068,77.4
2023-03-25T04:28:03,42.805,6.029,0.074,0.004,0.026,106.0,109.0,101.0,13.3,1505.2,329.6,-0.8,1.9,2471.198,13.29,0.074,86.9
2023-03-25T04:31:03,42.805,6.029,0.059,0.024,0.015,104.0,108.0,102.0,13.4,1505.2,326.3,-0.8,1.8,2471.185,13.29,0.063,67.9
2023-03-25T04:34:03,42.805,6.029,0.073,-0.003,-0.007,104.0,108.0,102.0,13.3,1505.2,344.2,-0.7,1.8,2471.215,13.29,0.073,92.4
2023-03-25T04:37:03,42.805,6.029,0.058,0.007,0.003,104.0,107.0,101.0,13.4,1505.2,322.5,-0.8,1.8,2471.205,13.29,0.058,83.1
2023-03-25T04:40:03,42.805,6.029,0.049,0.007,0.008,103.0,109.0,102.0,13.4,1505.2,338.8,-0.8,1.8,2471.206,13.29,0.049,81.9
2023-03-25T04:43:03,42.805,6.029,0.068,0.027,0.015,104.0,108.0,102.0,13.4,1505.2,316.1,-0.8,1.8,2471.203,13.29,0.073,68.3
2023-03-25T04:46:03,42.805,6.029,0.099,0.012,0.024,104.0,108.0,102.0,13.3,1505.2,322.5,-0.8,1.8,2471.171,13.29,0.099,83.1
2023-03-25T04:49:03,42.805,6.029,0.052,-0.01,-0.047,103.0,108.0,102.0,13.3,1505.2,340.8,-0.8,1.8,2471.21,13.29,0.052,100.9
2023-03-25T04:52:03,42.805,6.029,0.055,-0.003,-0.001,105.0,107.0,102.0,13.4,1505.2,337.6,-0.8,1.8,2471.171,13.29,0.055,93.1
2023-03-25T04:55:03,42.805,6.029,0.058,0.048,0.017,103.0,109.0,100.0,13.4,1505.2,317.2,-0.7,1.8,2471.188,13.29,0.075,50.4
2023-03-25T04:58:03,42.805,6.029,0.067,-0.004,-0.015,104.0,107.0,102.0,13.4,1505.2,330.4,-0.8,1.8,2471.209,13.29,0.067,93.4
2023-03-25T05:04:03,42.805,6.029,0.046,0.021,-0.037,103.0,107.0,102.0,13.4,1505.2,318.2,-0.7,1.8,2471.24,13.28,0.05,65.5
2023-03-25T05:07:03,42.805,6.029,0.06,-0.002,0.022,104.0,108.0,101.0,13.4,1505.2,334.3,-0.8,1.8,2471.226,13.28,0.06,91.9
2023-03-25T05:10:03,42.805,6.029,0.065,0.001,-0.004,105.0,107.0,102.0,13.4,1505.2,324.3,-0.8,1.8,2471.229,13.28,0.065,89.1
2023-03-25T05:13:03,42.805,6.029,0.079,-0.007,0.015,104.0,108.0,102.0,13.4,1505.2,342.1,-0.8,1.8,2471.232,13.28,0.079,95.1
2023-03-25T05:16:03,42.805,6.029,0.064,0.022,0.033,103.0,107.0,102.0,13.4,1505.2,318.8,-0.8,1.8,2471.211,13.28,0.067,71.0
2023-03-25T05:19:03,42.805,6.029,0.043,0.003,0.006,103.0,107.0,102.0,13.4,1505.2,331.7,-0.7,1.8,2471.25,13.29,0.043,86.0
2023-03-25T05:22:03,42.805,6.029,0.066,0.011,-0.003,103.0,108.0,102.0,13.4,1505.2,340.2,-0.7,1.8,2471.199,13.28,0.066,80.5
2023-03-25T05:25:03,42.805,6.029,0.056,0.032,0.034,104.0,108.0,103.0,13.3,1505.2,320.4,-0.7,1.8,2471.202,13.29,0.064,60.3
2023-03-25T05:28:03,42.805,6.029,0.084,0.03,0.027,104.0,107.0,102.0,13.4,1505.2,324.5,-0.8,1.8,2471.235,13.29,0.089,70.4
2023-03-25T05:31:03,42.805,6.029,0.067,0.005,0.009,104.0,108.0,102.0,13.3,1505.2,330.7,-0.8,1.8,2471.207,13.29,0.067,85.7
2023-03-25T05:34:03,42.805,6.029,0.042,0.004,-0.016,104.0,109.0,102.0,13.4,1505.2,333.4,-0.8,1.8,2471.248,13.29,0.042,84.6
2023-03-25T05:37:03,42.805,6.029,0.085,0.0,0.003,103.0,107.0,103.0,13.4,1505.2,324.2,-0.7,1.8,2471.172,13.29,0.084,90.0
2023-03-25T05:40:03,42.805,6.029,0.052,0.029,-0.004,104.0,108.0,102.0,13.4,1505.2,325.5,-0.7,1.8,2471.168,13.29,0.059,60.9
2023-03-25T05:43:03,42.805,6.029,0.086,0.026,-0.003,105.0,107.0,102.0,13.4,1505.2,324.7,-0.7,1.8,2471.217,13.29,0.089,73.2
2023-03-25T05:46:03,42.805,6.029,0.067,0.012,0.044,103.0,107.0,102.0,13.4,1505.2,333.9,-0.8,1.8,2471.218,13.29,0.068,79.8
2023-03-25T05:49:03,42.805,6.029,0.064,0.008,0.001,105.0,108.0,103.0,13.4,1505.2,324.3,-0.7,1.8,2471.248,13.29,0.064,82.9
2023-03-25T05:52:03,42.805,6.029,0.071,0.018,0.003,105.0,109.0,102.0,13.4,1505.2,332.6,-0.8,1.8,2471.227,13.29,0.073,75.8
2023-03-25T05:55:03,42.805,6.029,0.071,0.014,0.022,104.0,110.0,102.0,13.4,1505.2,322.2,-0.8,1.8,2471.272,13.29,0.072,78.8
2023-03-25T05:58:03,42.805,6.029,0.081,0.002,-0.015,104.0,107.0,102.0,13.4,1505.2,326.7,-0.8,1.8,2471.263,13.29,0.081,88.6
2023-03-25T06:04:03,42.805,6.029,0.047,0.016,-0.015,104.0,108.0,102.0,13.4,1505.2,316.7,-0.8,1.8,2471.309,13.28,0.049,71.2
2023-03-25T06:07:03,42.805,6.029,0.078,0.009,0.012,103.0,108.0,102.0,13.3,1505.2,334.8,-0.7,1.8,2471.29,13.28,0.078,83.4
2023-03-25T06:10:03,42.805,6.029,0.077,-0.001,0.01,105.0,108.0,103.0,13.4,1505.2,341.2,-0.8,1.8,2471.295,13.28,0.077,90.7
2023-03-25T06:13:03,42.805,6.029,0.069,0.013,0.023,105.0,107.0,102.0,13.4,1505.2,326.7,-0.7,1.8,2471.285,13.28,0.07,79.3
2023-03-25T06:16:03,42.805,6.029,0.069,0.026,0.006,103.0,108.0,102.0,13.4,1505.2,316.9,-0.8,1.8,2471.258,13.28,0.073,69.4
2023-03-25T06:19:03,42.805,6.029,0.062,0.023,-0.009,104.0,107.0,101.0,13.4,1505.2,322.5,-0.8,1.8,2471.286,13.28,0.066,69.7
2023-03-25T06:22:03,42.805,6.029,0.081,-0.003,0.014,103.0,108.0,101.0,13.3,1505.2,336.8,-0.8,1.8,2471.233,13.29,0.081,92.1
2023-03-25T06:25:03,42.805,6.029,0.074,0.024,0.017,105.0,107.0,104.0,13.3,1505.2,317.8,-0.7,1.8,2471.245,13.28,0.077,72.0
2023-03-25T06:28:03,42.805,6.029,0.07,-0.014,-0.019,105.0,105.0,102.0,13.4,1505.2,328.4,-0.8,1.8,2471.264,13.28,0.071,101.3
2023-03-25T06:31:03,42.805,6.029,0.062,0.037,0.049,103.0,107.0,102.0,13.3,1505.2,327.2,-0.8,1.8,2471.266,13.29,0.072,59.2
2023-03-25T06:34:03,42.805,6.029,0.081,0.029,0.022,103.0,108.0,102.0,13.4,1505.2,322.5,-0.8,1.8,2471.268,13.29,0.086,70.3
2023-03-25T06:37:03,42.805,6.029,0.069,0.013,-0.017,105.0,106.0,103.0,13.4,1505.2,331.9,-0.8,1.8,2471.273,13.29,0.07,79.3
2023-03-25T06:40:03,42.805,6.029,0.053,0.006,0.007,104.0,106.0,103.0,13.4,1505.2,321.4,-0.8,1.8,2471.273,13.29,0.053,83.5
2023-03-25T06:43:03,42.805,6.029,0.077,0.004,0.039,103.0,105.0,103.0,13.3,1505.2,328.6,-0.7,1.8,2471.297,13.29,0.077,87.0
2023-03-25T06:46:03,42.805,6.029,0.082,0.003,0.001,104.0,108.0,102.0,13.4,1505.2,337.4,-0.8,1.8,2471.272,13.29,0.082,87.9
2023-03-25T06:49:03,42.805,6.029,0.076,0.043,0.045,104.0,106.0,103.0,13.3,1505.2,330.1,-0.8,1.8,2471.304,13.29,0.087,60.5
2023-03-25T06:52:03,42.805,6.029,0.067,-0.011,-0.001,103.0,106.0,102.0,13.3,1505.2,333.4,-0.8,1.8,2471.334,13.29,0.067,99.3
2023-03-25T06:55:03,42.805,6.029,0.093,-0.009,0.033,103.0,106.0,103.0,13.4,1505.2,337.3,-0.8,1.8,2471.273,13.29,0.093,95.5
2023-03-25T06:58:03,42.805,6.029,0.068,0.017,0.037,104.0,107.0,102.0,13.4,1505.2,318.3,-0.7,1.8,2471.301,13.29,0.07,76.0
2023-03-25T07:04:03,42.805,6.029,0.078,0.007,0.031,103.0,109.0,103.0,13.4,1505.2,339.6,-0.8,1.8,2471.34,13.28,0.078,84.9
2023-03-25T07:07:03,42.805,6.029,0.088,-0.012,0.034,104.0,105.0,102.0,13.3,1505.2,332.9,-0.8,1.8,2471.353,13.28,0.088,97.8
2023-03-25T07:10:03,42.805,6.029,0.064,0.0,0.0,103.0,107.0,102.0,13.4,1505.2,325.0,-0.7,1.8,2471.354,13.28,0.063,90.0
2023-03-25T07:13:03,42.805,6.029,0.058,0.006,-0.011,103.0,107.0,103.0,13.4,1505.2,336.2,-0.7,1.8,2471.361,13.28,0.058,84.1
2023-03-25T07:16:03,42.805,6.029,0.063,-0.002,0.008,103.0,106.0,103.0,13.3,1505.2,329.4,-0.8,1.8,2471.356,13.28,0.063,91.8
2023-03-25T07:19:03,42.805,6.029,0.096,-0.031,0.013,104.0,109.0,102.0,13.4,1505.2,340.2,-0.8,1.8,2471.356,13.28,0.1,107.9
2023-03-25T07:22:03,42.805,6.029,0.073,0.012,0.016,104.0,107.0,102.0,13.4,1505.2,320.5,-0.8,1.8,2471.351,13.28,0.073,80.7
2023-03-25T07:25:03,42.805,6.029,0.075,0.022,0.011,105.0,107.0,102.0,13.4,1505.2,326.7,-0.8,1.8,2471.323,13.28,0.078,73.7
2023-03-25T07:28:03,42.805,6.029,0.096,0.0,0.019,104.0,106.0,102.0,13.4,1505.2,335.3,-0.7,1.8,2471.309,13.29,0.096,90.0
2023-03-25T07:31:03,42.805,6.029,0.049,0.006,-0.011,105.0,108.0,101.0,13.4,1505.2,330.0,-0.8,1.8,2471.354,13.29,0.049,83.0
2023-03-25T07:34:03,42.805,6.029,0.059,-0.003,0.027,104.0,106.0,102.0,13.4,1505.2,333.0,-0.8,1.9,2471.311,13.29,0.059,92.9
2023-03-25T07:37:03,42.805,6.029,0.068,-0.002,0.013,104.0,106.0,102.0,13.4,1505.2,341.9,-0.7,1.8,2471.364,13.29,0.068,91.7
2023-03-25T07:40:03,42.805,6.029,0.049,0.015,-0.011,105.0,107.0,102.0,13.4,1505.2,324.6,-0.8,1.8,2471.346,13.29,0.051,73.0
2023-03-25T07:43:03,42.805,6.029,0.075,-0.006,0.028,104.0,107.0,102.0,13.3,1505.2,331.1,-0.7,1.8,2471.309,13.28,0.075,94.6
2023-03-25T07:46:03,42.805,6.029,0.073,-0.002,0.007,104.0,108.0,103.0,13.3,1505.2,331.8,-0.8,1.8,2471.37,13.29,0.073,91.6
2023-03-25T07:49:03,42.805,6.029,0.093,-0.029,0.001,104.0,106.0,102.0,13.3,1505.2,327.9,-0.8,1.8,2471.37,13.29,0.097,107.3
2023-03-25T07:52:03,42.805,6.029,0.085,0.002,-0.019,104.0,108.0,102.0,13.4,1505.2,326.5,-0.8,1.8,2471.364,13.29,0.085,88.7
2023-03-25T07:55:03,42.805,6.029,0.073,0.016,0.006,104.0,107.0,103.0,13.4,1505.2,316.7,-0.8,1.8,2471.333,13.29,0.074,77.6
2023-03-25T07:58:03,42.805,6.029,0.058,-0.003,0.024,105.0,107.0,102.0,13.4,1505.2,335.1,-0.8,1.8,2471.353,13.29,0.058,93.0
2023-03-25T08:04:03,42.805,6.029,0.052,0.011,-0.005,104.0,107.0,102.0,13.4,1505.2,324.1,-0.8,1.8,2471.383,13.28,0.053,78.1
2023-03-25T08:07:03,42.805,6.029,0.077,0.022,0.007,102.0,106.0,102.0,13.4,1505.2,321.7,-0.8,1.8,2471.453,13.28,0.08,74.1
2023-03-25T08:10:03,42.805,6.029,0.102,0.005,0.024,105.0,106.0,102.0,13.4,1505.2,324.9,-0.8,1.8,2471.454,13.28,0.102,87.2
2023-03-25T08:13:03,42.805,6.029,0.061,0.006,0.036,106.0,107.0,102.0,13.3,1505.2,331.9,-0.8,1.8,2471.4,13.28,0.061,84.4
2023-03-25T08:16:03,42.805,6.029,0.038,0.028,0.014,104.0,107.0,101.0,13.4,1505.2,321.4,-0.8,1.8,2471.373,13.28,0.047,53.6
2023-03-25T08:19:03,42.805,6.029,0.055,-0.002,-0.011,105.0,107.0,103.0,13.4,1505.2,329.8,-0.8,1.8,2471.367,13.28,0.055,92.1
2023-03-25T08:22:03,42.805,6.029,0.051,-0.014,-0.009,104.0,107.0,101.0,13.4,1505.2,340.6,-0.7,1.8,2471.366,13.29,0.052,105.3
2023-03-25T08:25:03,42.805,6.029,0.051,0.003,-0.012,104.0,107.0,102.0,13.4,1505.2,327.9,-0.8,1.8,2471.367,13.28,0.051,86.6
2023-03-25T08:28:03,42.805,6.029,0.052,0.005,0.001,104.0,108.0,102.0,13.4,1505.2,326.0,-0.7,1.8,2471.358,13.29,0.052,84.5
2023-03-25T08:31:03,42.805,6.029,0.046,-0.04,0.004,105.0,106.0,101.0,13.3,1505.2,337.2,-0.8,1.8,2471.402,13.29,0.06,131.0
2023-03-25T08:34:03,42.805,6.029,0.05,0.019,0.011,104.0,106.0,101.0,13.4,1505.2,318.4,-0.8,1.8,2471.338,13.29,0.053,69.2
2023-03-25T08:37:03,42.805,6.029,0.053,0.016,-0.037,103.0,108.0,102.0,13.4,1505.2,325.3,-0.8,1.8,2471.346,13.29,0.055,73.2
2023-03-25T08:40:03,42.805,6.029,0.038,0.04,0.014,104.0,108.0,102.0,13.3,1505.2,335.8,-0.8,1.8,2471.424,13.29,0.055,43.5
2023-03-25T08:43:03,42.805,6.029,0.055,0.02,-0.008,104.0,108.0,101.0,13.4,1505.2,320.5,-0.8,1.8,2471.356,13.29,0.058,70.0
2023-03-25T08:46:03,42.805,6.029,0.054,-0.013,-0.01,103.0,106.0,102.0,13.4,1505.2,335.6,-0.7,1.8,2471.397,13.28,0.055,103.5
2023-03-25T08:49:03,42.805,6.029,0.065,0.001,0.009,104.0,107.0,103.0,13.4,1505.2,339.1,-0.8,1.8,2471.405,13.29,0.065,89.1
2023-03-25T08:52:03,42.805,6.029,0.046,0.02,-0.023,103.0,106.0,101.0,13.4,1505.2,316.1,-0.8,1.8,2471.355,13.29,0.05,66.5
2023-03-25T08:55:03,42.805,6.029,0.096,0.014,-0.012,105.0,107.0,102.0,13.3,1505.2,326.3,-0.7,1.8,2471.363,13.29,0.097,81.7
2023-03-25T08:58:03,42.805,6.029,0.067,0.001,0.003,105.0,106.0,102.0,13.3,1505.2,332.5,-0.8,1.8,2471.39,13.29,0.067,89.1
2023-03-25T09:04:03,42.805,6.029,0.074,0.011,-0.014,103.0,107.0,102.0,13.3,1505.2,315.5,-0.8,1.8,2471.426,13.28,0.074,81.5
2023-03-25T09:07:03,42.805,6.029,0.058,0.018,0.005,104.0,106.0,102.0,13.4,1505.2,322.5,-0.8,1.8,2471.439,13.28,0.06,72.8
2023-03-25T09:10:03,42.805,6.029,0.075,0.015,0.04,103.0,106.0,102.0,13.4,1505.2,333.0,-0.8,1.8,2471.411,13.28,0.076,78.7
2023-03-25T09:13:03,42.805,6.029,0.056,0.022,0.019,104.0,106.0,102.0,13.4,1505.2,333.4,-0.8,1.8,2471.383,13.28,0.06,68.6
2023-03-25T09:16:03,42.805,6.029,0.059,0.039,0.011,104.0,107.0,100.0,13.3,1505.2,324.5,-0.8,1.8,2471.451,13.28,0.07,56.5
2023-03-25T09:19:03,42.805,6.029,0.068,0.034,-0.011,104.0,107.0,102.0,13.4,1505.2,322.1,-0.8,1.8,2471.397,13.28,0.076,63.4
2023-03-25T09:22:03,42.805,6.029,0.067,0.002,0.026,105.0,108.0,102.0,13.4,1505.2,333.4,-0.8,1.8,2471.372,13.29,0.067,88.3
2023-03-25T09:25:03,42.805,6.029,0.074,0.007,-0.012,103.0,106.0,103.0,13.4,1505.2,328.8,-0.7,1.8,2471.402,13.28,0.074,84.6
2023-03-25T09:28:03,42.805,6.029,0.049,0.008,-0.006,104.0,106.0,102.0,13.3,1505.2,328.1,-0.8,1.8,2471.415,13.29,0.049,80.7
2023-03-25T09:31:03,42.805,6.029,0.065,-0.002,0.028,104.0,106.0,102.0,13.4,1505.2,327.9,-0.8,1.8,2471.382,13.29,0.065,91.8
2023-03-25T09:34:03,42.805,6.029,0.079,0.008,0.037,105.0,106.0,102.0,13.4,1505.2,332.9,-0.8,1.8,2471.344,13.29,0.079,84.2
2023-03-25T09:37:03,42.805,6.029,0.042,-0.007,-0.015,104.0,106.0,102.0,13.3,1505.2,336.6,-0.8,1.8,2471.382,13.29,0.042,99.5
2023-03-25T09:40:03,42.805,6.029,0.075,-0.006,-0.022,104.0,107.0,102.0,13.3,1505.2,338.5,-0.8,1.9,2471.374,13.29,0.075,94.6
2023-03-25T09:43:03,42.805,6.029,0.076,0.001,0.006,104.0,106.0,102.0,13.4,1505.2,330.1,-0.7,1.8,2471.377,13.29,0.076,89.2
2023-03-25T09:46:03,42.805,6.029,0.063,0.0,-0.019,105.0,105.0,102.0,13.4,1505.2,325.5,-0.8,1.8,2471.416,13.29,0.062,90.0
2023-03-25T09:49:03,42.805,6.029,0.06,0.003,-0.001,104.0,107.0,102.0,13.3,1505.2,328.3,-0.7,1.8,2471.406,13.29,0.06,87.1
2023-03-25T09:52:03,42.805,6.029,0.055,0.011,-0.011,104.0,107.0,103.0,13.4,1505.2,326.3,-0.8,1.8,2471.375,13.29,0.056,78.7
2023-03-25T09:55:03,42.805,6.029,0.048,0.026,-0.01,104.0,107.0,101.0,13.4,1505.2,322.3,-0.8,1.8,2471.362,13.29,0.054,61.6
2023-03-25T09:58:03,42.805,6.029,0.049,0.001,-0.026,104.0,105.0,102.0,13.4,1505.2,320.7,-0.8,1.8,2471.41,13.29,0.049,88.8
2023-03-25T10:04:03,42.805,6.029,0.056,-0.002,-0.008,104.0,105.0,102.0,13.4,1505.2,334.4,-0.8,1.8,2471.399,13.28,0.056,92.0
2023-03-25T10:07:03,42.805,6.029,0.057,0.0,-0.016,104.0,107.0,102.0,13.3,1505.2,324.2,-0.8,1.8,2471.406,13.28,0.057,90.0